DateTimeUTC,F1_A11,F1_S11,BsB_S11,BsG_S11,BsR_S11,BbsB_S11,BbsG_S11,BbsR_S11,BaB_A11,BaG_A11,BaR_A11,Tu_S11,T_S11,Uu_S11,U_S11,P_S11,T1_A11
2021-10-16T22:00:00Z,00000200,21000000,,,,,,,0000.23,-000.08,-000.39,16.2,23.4,,00.0,0665.6,30.8
2021-10-16T22:01:00Z,00000200,21000000,,,,,,,-000.16,0000.14,0000.19,16.2,23.4,,00.0,0665.6,30.8
2021-10-16T22:02:00Z,00000200,21000000,,,,,,,-000.07,-000.38,-000.03,16.2,23.4,,00.0,0665.6,30.8
2021-10-16T22:03:00Z,00000200,61000000,,,,,,,0008.19,0007.61,0005.80,16.2,23.4,,00.0,0665.6,30.8
2021-10-16T22:04:00Z,00000200,41000000,0003.69,0002.92,0002.00,0000.96,0000.67,0000.19,0022.66,0021.07,0016.70,16.4,23.2,,00.0,0666.6,30.8
2021-10-16T22:05:00Z,00000200,01000000,0003.21,0001.99,0001.01,0000.09,0000.86,-000.29,0012.09,0011.45,0009.21,16.5,23.2,,00.0,0666.7,30.8
2021-10-16T22:06:00Z,00000200,01000000,0001.82,0001.75,0000.76,0000.50,0000.35,0000.10,0001.08,0000.79,0000.64,16.5,23.2,,00.0,0666.7,30.8
2021-10-16T22:07:00Z,00000200,01000000,0001.48,0001.29,0000.72,0000.65,0000.20,-000.08,0000.17,0000.22,0000.07,16.5,23.2,,00.0,0666.7,30.8
2021-10-16T22:08:00Z,00000200,01000000,0001.78,0001.23,0000.85,-000.50,0000.41,-000.07,0000.32,0000.27,0000.10,16.5,23.2,,00.0,0666.7,30.8
2021-10-16T22:09:00Z,00000200,01000000,0001.42,0000.89,0000.93,0000.91,0000.60,0000.21,0000.04,0000.03,0000.26,16.5,23.2,,00.0,0666.7,30.8
2021-10-16T22:10:00Z,00000200,01000000,0002.45,0001.55,0000.98,0000.03,0000.31,-000.04,0000.44,0000.51,0000.12,16.5,23.2,,00.0,0666.7,30.8
2021-10-16T22:11:00Z,00000200,01000000,0002.13,0001.49,0001.04,-000.22,0000.35,-000.16,0000.18,0000.42,0000.31,16.5,23.2,,00.0,0666.7,30.8
2021-10-16T22:12:00Z,00000200,01000000,0001.98,0001.22,0000.74,0000.11,0000.28,0000.01,0000.49,0000.05,0000.05,16.5,23.2,,00.0,0666.7,30.8
2021-10-16T22:13:00Z,00000200,01000000,0002.56,0001.31,0001.26,0000.55,0000.43,-000.02,0000.37,0000.62,0000.44,16.6,23.2,,00.0,0666.6,30.8
2021-10-16T22:14:00Z,00000200,01000000,0002.19,0001.91,0001.16,0000.53,0000.62,0000.27,0000.47,0000.06,0000.22,16.6,23.2,,00.0,0666.7,30.8
2021-10-16T22:15:00Z,00000200,01000000,0002.44,0002.00,0001.49,0000.05,0000.37,0000.18,0000.63,0000.45,0000.35,16.6,23.2,,00.0,0666.7,30.8
2021-10-16T22:16:00Z,00000200,01000000,0003.39,0002.01,0001.56,0000.93,0000.67,-000.02,0000.79,0000.72,0000.57,16.6,23.2,,00.0,0666.7,30.8
2021-10-16T22:17:00Z,00000200,01000000,0003.01,0002.06,0001.31,-000.85,0000.67,0000.08,0000.24,0000.59,0000.43,16.6,23.2,,00.0,0666.7,30.8
2021-10-16T22:18:00Z,00000200,01000000,0003.03,0002.07,0001.24,0000.74,0000.52,0000.33,0000.74,0000.33,0000.23,16.6,23.2,,00.0,0666.7,30.8
2021-10-16T22:19:00Z,00000200,01000000,0002.67,0001.80,0000.93,0000.15,0000.41,-000.01,0000.32,0000.43,0000.56,16.6,23.2,,00.0,0666.7,30.8
2021-10-16T22:20:00Z,00000200,01000000,0002.28,0001.71,0000.98,0000.56,0000.26,-000.06,0000.31,0000.15,0000.19,16.6,23.2,,00.0,0666.6,30.8
2021-10-16T22:21:00Z,00000200,01000000,0002.93,0001.63,0001.17,0000.55,0000.67,0000.44,0000.39,0000.42,0000.09,16.6,23.2,,00.0,0666.6,30.8
2021-10-16T22:22:00Z,00000200,01000000,0002.79,0001.98,0001.06,0000.56,0000.42,0000.03,0000.53,0000.37,0000.30,16.6,23.2,,00.0,0666.6,30.8
2021-10-16T22:23:00Z,00000200,01000000,0002.63,0001.72,0001.03,0000.25,0000.48,0000.00,0000.34,0000.29,0000.24,16.6,23.2,,00.0,0666.7,30.8
2021-10-16T22:24:00Z,00000200,01000000,0003.15,0001.51,0001.01,-000.08,0000.59,-000.22,0000.33,0000.31,0000.10,16.6,23.2,,00.0,0666.7,30.8
2021-10-16T22:25:00Z,00000200,01000000,0002.03,0001.79,0000.91,0000.31,0000.47,-000.10,0000.03,-000.03,0000.20,16.6,23.2,,00.0,0666.7,30.8
2021-10-16T22:26:00Z,00000200,01000000,0002.65,0001.53,0000.81,0000.26,0000.18,-000.29,0000.37,0000.21,0000.48,16.6,23.2,,00.0,0666.7,30.8
2021-10-16T22:27:00Z,00000200,01000000,0002.56,0001.86,0001.18,0000.56,0000.70,-000.19,0000.31,0000.61,0000.26,16.6,23.2,,00.0,0666.7,30.8
2021-10-16T22:28:00Z,00000200,01000000,0002.81,0001.98,0001.12,0000.85,0000.26,0000.11,0000.59,0000.71,0000.43,16.7,23.2,,00.0,0666.7,30.8
2021-10-16T22:29:00Z,00000200,01000000,0002.92,0001.54,0000.84,-000.29,0000.55,0000.24,0000.38,0000.38,0000.14,16.6,23.2,,00.0,0666.7,30.8
2021-10-16T22:30:00Z,00000200,01000000,0002.42,0001.75,0000.88,0000.22,0000.19,-000.02,0000.80,0000.24,0000.58,16.7,23.2,,00.0,0666.7,30.8
2021-10-16T22:31:00Z,00000200,01000000,0002.26,0001.12,0000.42,0000.34,0000.56,-000.14,-000.27,0000.24,-000.47,16.7,23.2,,00.0,0666.8,30.8
2021-10-16T22:32:00Z,00000200,01000000,0001.52,0001.44,0000.68,0001.05,0000.13,0000.03,0000.01,-000.09,0000.30,16.7,23.2,,00.0,0666.8,30.8
2021-10-16T22:33:00Z,00000200,01000000,0001.80,0001.82,0000.87,0000.36,0000.37,-000.06,0000.56,0000.30,-000.02,16.7,23.2,,00.0,0666.8,30.8
2021-10-16T22:34:00Z,00000200,01000000,0002.80,0001.36,0001.03,0000.55,0000.49,0000.13,0000.31,0000.08,0000.44,16.7,23.2,,00.0,0666.8,30.8
2021-10-16T22:35:00Z,00000200,01000000,0002.32,0001.56,0000.97,-000.28,0000.42,0000.21,0000.80,0000.66,0000.28,16.7,23.2,,00.0,0666.8,30.8
2021-10-16T22:36:00Z,00000200,01000000,0002.81,0001.81,0000.91,0000.23,0000.40,-000.25,0000.23,0000.66,0000.28,16.7,23.2,,00.0,0666.8,30.8
2021-10-16T22:37:00Z,00000200,01000000,0002.18,0001.61,0000.88,0000.34,0000.36,0000.07,0000.59,0000.24,0000.64,16.7,23.2,,00.0,0666.8,30.8
2021-10-16T22:38:00Z,00000200,01000000,0002.52,0001.95,0001.13,0000.47,0000.45,-000.14,0000.46,0000.15,0000.03,16.7,23.3,,00.0,0666.8,30.8
2021-10-16T22:39:00Z,00000200,01000000,0002.72,0001.83,0001.11,0000.14,0000.59,0000.09,0000.52,0000.73,0000.54,16.7,23.2,,00.0,0666.8,30.8
2021-10-16T22:40:00Z,00000200,01000000,0002.89,0001.72,0000.97,0000.51,0000.32,0000.36,0000.65,0000.81,0000.47,16.7,23.3,,00.0,0666.8,30.8
2021-10-16T22:41:00Z,00000200,01000000,0002.35,0001.87,0001.11,0000.66,0000.59,-000.33,0000.59,0000.58,0000.48,16.7,23.3,,00.0,0666.9,30.8
2021-10-16T22:42:00Z,00000200,01000000,0002.82,0001.93,0001.33,0000.64,0000.48,0000.24,0000.52,0000.27,0000.37,16.7,23.2,,00.0,0666.9,30.8
2021-10-16T22:43:00Z,00000200,01000000,0001.99,0001.59,0001.06,0000.51,0000.47,0000.15,0000.43,0000.48,0000.12,16.7,23.2,,00.0,0666.9,30.8
2021-10-16T22:44:00Z,00000200,01000000,0002.76,0001.98,0000.85,0000.68,0000.38,0000.14,0000.67,0000.54,0000.22,16.7,23.3,,00.0,0666.9,30.8
2021-10-16T22:45:00Z,00000200,01000000,0001.90,0001.75,0001.01,0000.33,0000.48,0000.32,0000.15,0000.21,0000.14,16.7,23.2,,00.0,0666.9,30.8
2021-10-16T22:46:00Z,00000200,01000000,0002.67,0001.79,0000.83,0000.25,0000.64,0000.10,0000.27,0000.25,0000.43,16.7,23.3,,00.0,0666.9,30.8
2021-10-16T22:47:00Z,00000200,01000000,0002.83,0001.87,0000.92,0000.32,0000.06,-000.24,0000.56,0000.23,0000.40,16.7,23.2,,00.0,0666.9,30.8
2021-10-16T22:48:00Z,00000200,01000000,0002.46,0001.86,0000.67,0000.65,0000.26,0000.16,0000.29,0000.48,-000.08,16.7,23.3,,00.0,0666.9,30.8
2021-10-16T22:49:00Z,00000200,01000000,0002.39,0001.73,0000.95,0000.45,0000.64,0000.31,0000.64,0000.33,0000.27,16.7,23.2,,00.0,0666.9,30.8
2021-10-16T22:50:00Z,00000200,01000000,0001.95,0001.80,0001.06,-000.55,0000.53,0000.19,-000.07,0000.16,0000.12,16.7,23.3,,00.0,0666.9,30.8
2021-10-16T22:51:00Z,00000200,01000000,0002.61,0001.53,0000.95,0000.39,0000.59,-000.28,0000.49,0000.50,0000.55,16.7,23.3,,00.0,0666.8,30.8
2021-10-16T22:52:00Z,00000200,01000000,0002.97,0001.61,0000.98,0000.72,0000.18,0000.08,0000.02,0000.11,0000.05,16.7,23.3,,00.0,0666.8,30.8
2021-10-16T22:53:00Z,00000200,01000000,0002.07,0001.63,0001.30,0001.01,0000.72,0000.05,0000.72,0000.25,0000.35,16.7,23.3,,00.0,0666.8,30.8
2021-10-16T22:54:00Z,00000200,01000000,0003.11,0001.56,0001.08,0000.93,0000.55,-000.12,-000.10,0000.55,0000.12,16.7,23.3,,00.0,0666.8,30.8
2021-10-16T22:55:00Z,00000200,01000000,0002.42,0001.52,0001.00,-000.03,0000.53,0000.13,0000.42,-000.39,-000.09,16.7,23.3,,00.0,0666.8,30.8
2021-10-16T22:56:00Z,00000200,01000000,0003.03,0001.51,0000.70,0000.10,0000.21,0000.34,0000.44,0000.87,0000.53,16.7,23.3,,00.0,0666.8,30.8
2021-10-16T22:57:00Z,00000200,41000000,,,,,,,0001.11,0000.70,0000.56,16.8,23.3,,00.0,0666.9,30.8
2021-10-16T22:58:00Z,00000200,61000000,,,,,,,-000.33,0000.13,-000.10,16.4,23.4,,00.0,0665.8,30.8
2021-10-16T22:59:00Z,00000200,21000000,,,,,,,0000.08,-000.21,0000.03,16.4,23.5,,00.0,0665.8,30.8
